This demonstration page uses our WeatherBlox Daily Observations layout. Learn more.

Left ArrowRight Arrow

Hourly Observations for December 2, 2021

Temp ( °F °C ) Dew Point ( °F °C ) Humidity (%) Winds ( mph kmh ) Pressure ( in mb ) Visibility ( mi km ) Precip ( " mm )
12:15 am 00:15 Clear 54 12.2 29 -1.7 38 38 W 12 19 29.95 1014 10 16 N/A
12:35 am 00:35 Clear 53 11.8 29 -1.6 40 40 WSW 12 19 29.96 1014 10 16 N/A
12:55 am 00:55 Clear 53 11.8 29 -1.5 40 40 W 12 19 29.96 1014 10 16 N/A
1:15 am 01:15 Clear 52 11.2 29 -1.5 42 42 WSW 6 9 29.95 1014 10 16 N/A
1:35 am 01:35 Clear 52 11 29 -1.5 42 42 WSW 8 13 29.95 1014 10 16 N/A
1:55 am 01:55 Clear 51 10.5 29 -1.6 43 43 W 13 20 29.97 1015 10 16 N/A
2:15 am 02:15 Clear 49 9.5 30 -1.2 48 48 W 13 20 29.98 1015 10 16 N/A
2:35 am 02:35 Clear 49 9.7 30 -1 48 48 W 10 17 29.99 1015 10 16 N/A
2:55 am 02:55 Clear 50 9.8 30 -1 47 47 W 9 15 29.98 1015 10 16 N/A
3:15 am 03:15 Clear 49 9.2 31 -0.8 50 50 W 9 15 29.99 1016 10 16 N/A
3:35 am 03:35 Clear 49 9.5 31 -0.5 50 50 W 8 13 29.99 1015 10 16 N/A
3:50 am 03:50 Clear 49 9.4 31 -0.6 50 50 W 8 13 29.99 1016 10 16 N/A
4:15 am 04:15 Clear 48 9 31 -0.5 52 52 W 9 15 29.99 1016 10 16 N/A
4:35 am 04:35 Clear 48 8.7 31 -0.5 53 53 W 9 15 29.99 1016 10 16 N/A
4:55 am 04:55 Clear 46 7.9 31 -0.6 55 55 W 9 15 30.00 1016 10 16 N/A
5:15 am 05:15 Clear 47 8.6 31 -0.5 53 53 W 8 13 30.00 1016 10 16 N/A
5:35 am 05:35 Clear 46 8 31 -0.5 55 55 W 8 13 30.00 1016 10 16 N/A
5:55 am 05:55 Clear 47 8.5 32 -0.2 55 55 W 9 15 30.00 1016 10 16 N/A
6:15 am 06:15 Clear 46 7.7 31 -0.5 56 56 W 7 11 30.01 1016 10 16 N/A
6:35 am 06:35 Clear 46 7.7 31 -0.6 56 56 W 7 11 30.01 1016 10 16 N/A
6:55 am 06:55 Clear 46 7.6 31 -0.5 57 57 WSW 7 11 30.01 1016 10 16 N/A
7:15 am 07:15 Clear 45 7.3 31 -0.7 57 57 W 8 13 30.03 1017 10 16 N/A
7:35 am 07:35 Clear 45 7.3 31 -0.5 58 58 W 8 13 30.03 1017 10 16 N/A
7:55 am 07:55 Sunny 46 7.7 31 -0.3 57 57 W 10 17 30.03 1017 10 16 N/A
8:15 am 08:15 Sunny 47 8.1 32 -0.1 57 57 W 10 17 30.04 1017 10 16 N/A
8:35 am 08:35 Sunny 47 8.4 32 undefined 56 56 W 7 11 30.04 1017 10 16 N/A
8:55 am 08:55 Sunny 50 9.9 32 0.2 51 51 W 7 11 30.02 1017 10 16 N/A
9:15 am 09:15 Sunny 53 11.7 33 0.6 47 47 W 7 11 30.02 1017 10 16 N/A
9:35 am 09:35 Sunny 55 12.7 34 1 45 45 W 8 13 30.02 1017 10 16 N/A
9:55 am 09:55 Sunny 58 14.5 33 0.8 40 40 W 7 11 29.99 1016 10 16 N/A
10:15 am 10:15 Sunny 60 15.6 33 0.7 37 37 WNW 7 11 29.99 1016 10 16 N/A
10:35 am 10:35 Sunny 62 16.5 34 0.9 35 35 NW 3 6 30.00 1016 10 16 N/A
10:55 am 10:55 Sunny 63 17.4 34 0.9 33 33 WNW 5 7 29.98 1015 10 16 N/A
11:15 am 11:15 Sunny 64 18 34 1 32 32 W 7 11 29.95 1014 10 16 N/A
11:35 am 11:35 Sunny 66 18.7 34 1.1 31 31 W 3 6 29.95 1014 10 16 N/A
11:55 am 11:55 Sunny 67 19.3 34 1 30 30 SW 3 6 29.92 1013 10 16 N/A
12:15 pm 12:15 Sunny 68 20 34 0.9 28 28 SW 3 6 29.91 1013 10 16 N/A
12:35 pm 12:35 Sunny 69 20.8 34 1.1 27 27 SW 5 7 29.89 1012 10 16 N/A
12:55 pm 12:55 Sunny 71 21.4 34 1.2 26 26 SW 5 7 29.88 1012 10 16 N/A
1:15 pm 13:15 Sunny 72 22.2 34 1.1 25 25 SSW 7 11 29.86 1011 10 16 N/A
1:35 pm 13:35 Sunny 71 21.7 33 0.8 25 25 W 10 17 29.85 1011 10 16 N/A
1:55 pm 13:55 Sunny 71 21.7 34 1 25 25 WSW 8 13 29.84 1011 10 16 N/A
2:15 pm 14:15 Sunny 71 21.7 33 0.8 25 25 W 9 15 29.84 1011 10 16 N/A
2:35 pm 14:35 Sunny 71 21.8 34 0.9 25 25 WSW 7 11 29.83 1010 10 16 N/A
2:55 pm 14:55 Sunny 73 22.5 33 0.7 24 24 SW 9 15 29.83 1010 10 16 N/A
3:15 pm 15:15 Sunny 73 23 33 0.3 22 22 SW 7 11 29.81 1010 10 16 N/A
3:35 pm 15:35 Sunny 74 23.2 32 0.2 22 22 SW 8 13 29.80 1009 10 16 N/A
3:55 pm 15:55 Sunny 74 23.1 32 0.2 22 22 WSW 5 7 29.80 1009 10 16 N/A
4:15 pm 16:15 Sunny 73 23 32 0.1 22 22 SW 6 9 29.80 1009 10 16 N/A
4:35 pm 16:35 Sunny 72 22.3 33 0.4 23 23 SSW 3 6 29.81 1009 10 16 N/A
4:55 pm 16:55 Sunny 71 21.6 33 0.3 24 24 SSW 3 6 29.80 1009 10 16 N/A
5:15 pm 17:15 Clear 67 19.7 33 0.3 27 27 S 5 7 29.82 1010 10 16 N/A
5:35 pm 17:35 Clear 65 18.4 32 0.1 29 29 S 5 7 29.82 1010 10 16 N/A
5:55 pm 17:55 Clear 64 17.5 32 0.1 31 31 S 8 13 29.83 1010 10 16 N/A
6:15 pm 18:15 Clear 60 15.3 32 undefined 35 35 S 6 9 29.85 1011 10 16 N/A
6:35 pm 18:35 Clear 57 14 32 -0.2 38 38 S 6 9 29.86 1011 10 16 N/A
6:55 pm 18:55 Clear 55 12.6 32 -0.2 42 42 S 3 6 29.87 1012 10 16 N/A
7:15 pm 19:15 Clear 55 12.7 32 undefined 42 42 S 6 9 29.87 1011 10 16 N/A
7:35 pm 19:35 Clear 55 12.7 32 0.2 43 43 S 6 9 29.87 1011 10 16 N/A
7:55 pm 19:55 Clear 57 13.7 32 0.1 40 40 S 8 13 29.86 1011 10 16 N/A
8:15 pm 20:15 Clear 52 11.3 32 0.1 46 46 S 5 7 29.88 1012 10 16 N/A
8:35 pm 20:35 Clear 52 10.9 32 undefined 47 47 S 3 6 29.88 1012 10 16 N/A
8:55 pm 20:55 Clear 53 11.8 32 0.1 45 45 SSW 5 7 29.88 1012 10 16 N/A
9:15 pm 21:15 Clear 51 10.4 32 -0.1 48 48 SW 5 7 29.89 1012 10 16 N/A
9:35 pm 21:35 Clear 54 12.3 32 undefined 43 43 SW 8 13 29.87 1012 10 16 N/A
9:55 pm 21:55 Clear 54 12 31 -0.3 43 43 SSW 9 15 29.88 1012 10 16 N/A
10:15 pm 22:15 Clear 53 11.6 31 -0.5 43 43 SW 7 11 29.88 1012 10 16 N/A
10:35 pm 22:35 Clear 56 13.1 31 -0.6 39 39 SW 7 11 29.87 1011 10 16 N/A
10:55 pm 22:55 Clear 59 15 30 -1 34 34 WSW 8 13 29.85 1011 10 16 N/A
11:15 pm 23:15 Clear 57 13.8 30 -1.1 36 36 SW 9 15 29.86 1011 10 16 N/A
11:35 pm 23:35 Clear 56 13.5 30 -1.1 37 37 SW 8 13 29.86 1011 10 16 N/A
11:55 pm 23:55 Clear 56 13.5 30 -1.2 36 36 WSW 8 13 29.85 1011 10 16 N/A

Powered by AerisWeather